Regional Weather Roundup
Issued by NWS

Home | Current Version | Previous Version | Graphics & Text | Print | Product List | Glossary On
Versions: 1 2 3 4 5 6 7 8 9 10 11 12 13 14 15 16 17 18 19 20 21 22 23 24 25 26 27 28 29 30 31 32 33 34 35 36 37 38 39 40 41 42 43 44 45 46 47 48 49 50
000
ASUS43 KLMK 200002
RWRKY
KENTUCKY REGIONAL WEATHER ROUNDUP
NATIONAL WEATHER SERVICE LOUISVILLE KY
800 PM EDT TUE SEP 19 2017

NOTE "FAIR" INDICATES FEW OR NO CLOUDS BELOW 12,000 FEET
WITH NO SIGNIFICANT WEATHER AND/OR OBSTRUCTIONS TO VISIBILITY.

KYZ001>023-026-027-061>063-070>075-200100-
WESTERN AND SOUTH CENTRAL KENTUCKY

CITY           SKY/WX    TMP DP  RH WIND       PRES   REMARKS
PADUCAH        CLEAR     80  69  69 SE3       29.88S
HENDERSON      CLEAR     77  70  79 SE3       29.90S
OWENSBORO      CLEAR     79  70  74 CALM      29.91F
HOPKINSVILLE   CLEAR     82  69  64 CALM      29.91S
BOWLING GREEN  PTCLDY    78  71  79 S8        29.93S
GLASGOW        PTCLDY    74  68  80 CALM      29.95R
$$

KYZ024-025-028>034-038-045-046-053-200100-
NORTH CENTRAL KENTUCKY

CITY           SKY/WX    TMP DP  RH WIND       PRES   REMARKS
LOUISVILLE/SDF PTCLDY    75  68  78 SE5       29.93F
LOUISVILLE/LOU CLEAR     74  70  87 CALM      29.94S
FORT KNOX      CLEAR     72  70  93 E3        29.93S
$$

KYZ035>037-039>044-047>052-055>060-089>105-200100-
NORTHEAST KENTUCKY

CITY           SKY/WX    TMP DP  RH WIND       PRES   REMARKS
LEXINGTON      CLOUDY    73  68  84 N3        29.96S
COVINGTON      PTCLDY    72  68  87 SW5       29.95S
FRANKFORT      CLEAR     72  67  84 CALM      29.94F
$$

KYZ054-064>069-076>088-106>120-200100-
SOUTHEAST KENTUCKY

CITY           SKY/WX    TMP DP  RH WIND       PRES   REMARKS
JACKSON        MOCLDY    71  68  90 CALM      29.97F
LONDON         PTCLDY    73  68  84 CALM      29.97S
SOMERSET       NOT AVBL
MIDDLESBORO    PTCLDY    72  68  87 CALM      29.97S
MONTICELLO     PTCLDY    72  68  87 NE3       29.98S
$$





USA.gov is the U.S. government's official web portal to all federal, state and local government web resources and services.